Location: Newark
(45.5167°N, 11.1667°E)
Time: 02:11:56
(UTC+00:00)

Explorer 7 - All Passes

Search period start: 15 December 2019 00:00
Search period end: 25 December 2019 00:00
Orbit: 485 x 680 km, 50.3° (Epoch: 14 December)

Date Brightness Start Highest point End Pass type
(mag) Time Alt. Az. Time Alt. Az. Time Alt. Az.
15 Dec - 11:57:11 10° S 12:00:10 17° SE 12:03:15 10° E daylight
15 Dec - 13:35:25 10° SW 13:40:07 69° SSE 13:45:02 10° ENE daylight
15 Dec - 15:16:13 10° W 15:20:58 53° N 15:25:49 10° ENE daylight
15 Dec - 16:57:22 10° WNW 17:02:11 52° N 17:06:58 10° E visible
15 Dec - 18:38:09 10° WNW 18:43:05 75° SSW 18:47:52 10° SE visible
15 Dec - 20:19:43 10° W 20:23:07 19° SW 20:26:25 10° S visible
16 Dec - 12:01:02 10° S 12:04:51 25° SE 12:08:49 10° E daylight
16 Dec - 13:40:18 10° WSW 13:45:03 89° NW 13:50:01 10° ENE daylight
16 Dec - 15:21:21 10° W 15:26:04 49° N 15:30:52 10° ENE daylight
16 Dec - 17:02:23 10° WNW 17:07:16 59° NNE 17:12:06 10° E visible
16 Dec - 18:43:10 10° WNW 18:47:58 53° SW 18:52:38 10° SE visible
16 Dec - 20:25:52 10° WSW 20:27:44 12° SW 20:29:34 10° SSW visible
17 Dec - 12:05:19 10° SSW 12:09:35 37° SE 12:14:03 10° ENE daylight
17 Dec - 13:45:18 10° WSW 13:50:03 71° NNW 13:54:59 10° ENE daylight
17 Dec - 15:26:28 10° WNW 15:31:11 47° N 15:35:57 10° ENE daylight
17 Dec - 17:07:22 10° WNW 17:12:18 72° NNE 17:17:11 10° ESE visible
17 Dec - 18:48:16 10° WNW 18:52:47 37° SW 18:57:11 10° SSE visible
18 Dec - 10:32:58 10° SSE 10:34:40 12° SE 10:36:23 10° ESE daylight
18 Dec - 12:09:53 10° SW 12:14:24 54° SE 12:19:09 10° ENE daylight
18 Dec - 13:50:23 10° W 13:55:06 58° NNW 13:59:58 10° ENE daylight
18 Dec - 15:31:33 10° WNW 15:36:17 49° N 15:41:05 10° E daylight
18 Dec - 17:12:20 10° WNW 17:17:17 90° SW 17:22:11 10° ESE visible
18 Dec - 18:53:31 10° W 18:57:31 25° SW 19:01:27 10° S visible
19 Dec - 10:36:06 10° S 10:39:17 19° SE 10:42:34 10° E daylight
19 Dec - 12:14:39 10° SW 12:19:17 76° SSE 12:24:10 10° ENE daylight
19 Dec - 13:55:30 10° W 14:00:11 51° N 14:04:59 10° ENE daylight
19 Dec - 15:36:35 10° WNW 15:41:23 54° N 15:46:13 10° E daylight
19 Dec - 17:17:19 10° WNW 17:22:13 68° SSW 17:27:03 10° SE visible
19 Dec - 18:59:05 10° W 19:02:12 17° SW 19:05:16 10° S visible
20 Dec - 10:40:06 10° SSW 10:43:58 28° SE 10:48:01 10° E daylight
20 Dec - 12:19:34 10° WSW 12:24:14 82° NNW 12:29:08 10° ENE daylight
20 Dec - 14:00:38 10° WNW 14:05:17 48° N 14:10:03 10° ENE daylight
20 Dec - 15:41:35 10° WNW 15:46:26 63° NNE 15:51:19 10° E daylight
20 Dec - 17:22:21 10° WNW 17:27:05 48° SW 17:31:45 10° SE visible
20 Dec - 19:05:51 10° WSW 19:06:48 11° SW 19:07:45 10° SW visible
21 Dec - 10:44:28 10° SSW 10:48:43 41° SE 10:53:12 10° ENE daylight
21 Dec - 12:24:36 10° WSW 12:29:15 66° NNW 12:34:06 10° ENE daylight
21 Dec - 14:05:44 10° WNW 14:10:23 47° N 14:15:09 10° ENE daylight
21 Dec - 15:46:33 10° WNW 15:51:28 77° NNE 15:56:23 10° ESE daylight
21 Dec - 17:27:29 10° WNW 17:31:53 33° SW 17:36:14 10° SSE visible
22 Dec - 09:11:39 10° SSE 09:13:46 13° SE 09:15:56 10° E daylight
22 Dec - 10:49:07 10° SW 10:53:34 60° SSE 10:58:16 10° ENE daylight
22 Dec - 12:29:42 10° W 12:34:18 55° NNW 12:39:06 10° ENE daylight
22 Dec - 14:10:48 10° WNW 14:15:29 50° N 14:20:17 10° E daylight
22 Dec - 15:51:31 10° WNW 15:56:26 83° SSW 16:01:21 10° ESE daylight
22 Dec - 17:32:48 10° W 17:36:37 23° SW 17:40:23 10° S visible
23 Dec - 09:15:07 10° S 09:18:24 21° SE 09:21:50 10° E daylight
23 Dec - 10:53:56 10° WSW 10:58:28 83° SSE 11:03:16 10° ENE daylight
23 Dec - 12:34:49 10° W 12:39:23 49° N 12:44:08 10° ENE daylight
23 Dec - 14:15:49 10° WNW 14:20:34 56° NNE 14:25:25 10° E daylight
23 Dec - 15:56:31 10° WNW 16:01:20 61° SSW 16:06:11 10° SE daylight
23 Dec - 17:38:32 10° W 17:41:16 15° SW 17:43:59 10° SSW visible
24 Dec - 09:19:14 10° SSW 09:23:06 31° SE 09:27:11 10° ENE daylight
24 Dec - 10:58:53 10° WSW 11:03:25 76° NNW 11:08:14 10° ENE daylight
24 Dec - 12:39:57 10° WNW 12:44:29 47° N 12:49:12 10° ENE daylight
24 Dec - 14:20:48 10° WNW 14:25:37 66° NNE 14:30:31 10° ESE daylight
24 Dec - 16:01:34 10° WNW 16:06:11 43° SW 16:10:49 10° SSE visible
